Location: Ammerl�gen
(47.2167°N, 9.6000°E)
Time: 10:05:40
(UTC+00:00)

Cosmos 1408 Rocket - Pass Details

Date: 21 April 2021
Orbit: 600 x 631 km, 82.6° (Epoch: 06 May)

Event Time Altitude Azimuth Distance (km) Brightness Sun altitude
Rises 21:11:54 0° 349° (NNW) 2,865 8.1 -24.1°
Reaches altitude 10° 21:14:08 10° 347° (NNW) 1,959 7.0 -24.3°
Enters shadow 21:18:23 73° 272° (W) 638 3.6 -24.7°
